Orbital Elements at Epoch 2459200.5 (2020-Dec-17.0) TDB
Reference: JPL 22 (heliocentric ecliptic J2000)
Element | Value | Uncertainty (1-sigma) | Units |
e | .260108974768859 | 3.0704e-08 | |
a | 3.188722843603403 | 1.799e-08 | au |
q | 2.359307413931682 | 9.6581e-08 | au |
i | 12.33369193406737 | 4.0976e-06 | deg |
node | 158.8979667119282 | 2.0999e-05 | deg |
peri | 340.2684249061096 | 2.3317e-05 | deg |
M | 148.823560068941 | 9.6031e-06 | deg |
tp | 2458340.709237318526 (2018-Aug-10.20923732) | 5.3109e-05 | TDB |
period | 2079.809637815052 5.69 | 1.7601e-05 4.819e-08 | d yr |
n | .173092764575415 | 1.4649e-09 | deg/d |
Q | 4.018138273275126 | 2.267e-08 | au |
|
| | Orbit Determination Parameters
Additional Information
|